Location: Goll?ig?dem
(16.6773°N, 80.7332°E)
Time: 07:07:38
(UTC+00:00)

Cosmos 2227 Rocket - Pass Details

Date: 21 April 2021
Orbit: 840 x 844 km, 71.0° (Epoch: 07 May)

Event Time Altitude Azimuth Distance (km) Brightness Sun altitude
Rises 15:35:48 0° 226° (SW) 3,389 5.5 -37.0°
Reaches altitude 10° 15:38:47 10° 241° (WSW) 2,456 4.9 -37.7°
Maximum altitude 15:43:03 22° 291° (WNW) 1,755 4.3 -38.5°
Drops below altitude 10° 15:47:21 10° 341° (NNW) 2,457 5.1 -39.4°
Sets 15:50:21 0° 356° (N) 3,392 5.7 -40.0°
